Regional Weather Roundup
Issued by NWS

Home | Current Version | Previous Version | Graphics & Text | Print | Product List | Glossary On
Versions: 1 2 3 4 5 6 7 8 9 10 11 12 13 14 15 16 17 18 19 20 21 22 23 24 25 26 27 28 29 30 31 32 33 34 35 36 37 38 39 40 41 42 43 44 45 46 47 48 49 50
000
ASUS43 KLSX 240510
RWRMO

WEATHER SUMMARY FOR MISSOURI
NATIONAL WEATHER SERVICE SPRINGFIELD MO
1200 AM CDT SUN JUL 24 2016

NOTE: "FAIR" INDICATES FEW OR NO CLOUDS BELOW 12,000 FEET WITH NO
       SIGNIFICANT WEATHER AND/OR OBSTRUCTIONS TO VISIBILITY.
       CURRENT SKY AND/OR WEATHER CONDITIONS ARE NOT AVAILABLE FOR
       CHILLICOTHE AND FARMINGTON.

MOZ001>031-035>038-043-044-053-054-240600-
...NORTHERN AND WESTERN MISSOURI...

CITY           SKY/WX    TMP DP  RH WIND       PRES   REMARKS
KANSAS CTY INT CLOUDY    85  72  65 S10       29.88R HX  91
KANSAS C DTWN  CLOUDY    89  72  56 S7        29.86S HX  96
LEE`S SUMMIT   CLOUDY    88  72  58 S15       29.89S HX  94
ST JOSEPH      CLOUDY    84  73  69 S7        29.85S HX  90
CHILLICOTHE      N/A     84  76  76 S5        29.89S HX  93
KIRKSVILLE     CLOUDY    82  76  81 S6        29.92S

$$
MOZ066>068-077>081-088>096-101>105-240600-
...SOUTHWEST MISSOURI...

CITY           SKY/WX    TMP DP  RH WIND       PRES   REMARKS
SPRINGFIELD    CLEAR     83  73  72 SE7       29.95R
JOPLIN         PTCLDY    82  75  79 S8        29.92R
BRANSON        CLOUDY    81  73  78 CALM      29.98R

$$
MOZ032>034-039>042-045>050-055>058-069>072-240600-
...CENTRAL MISSOURI...

CITY           SKY/WX    TMP DP  RH WIND       PRES   REMARKS
COLUMBIA       CLEAR     82  77  84 SE7       29.93R HX  90
JEFFERSON CITY CLEAR     81  77  88 SE5       29.91R
ROLLA          CLEAR     82  76  81 S8        29.95S
SEDALIA        CLOUDY    83  77  82 CALM      29.92S HX  92
WHITEMAN AFB   CLOUDY    83  78  83 SE3       29.89S HX  92
OSAGE BEACH    CLEAR     81  77  88 S5        29.94S

$$
MOZ051-052-059>065-240600-
...EAST CENTRAL MISSOURI...

CITY           SKY/WX    TMP DP  RH WIND       PRES   REMARKS
ST LOUIS INTL  CLEAR     87  73  62 S8        29.94S HX  94
SPIRIT OF STL  CLEAR     83  76  79 S3        29.93R HX  91
ST CHARLES     CLEAR     80  78  94 E3        29.93S

$$
MOZ072>076-082>087-097>100-106>115-240600-
...SOUTH CENTRAL AND SOUTHEAST MISSOURI...

CITY           SKY/WX    TMP DP  RH WIND       PRES   REMARKS
CAPE GIRARDEAU CLEAR     78  75  90 S3        29.94F
FARMINGTON     CLEAR     78  75  90 CALM      29.98S
POPLAR BLUFF   CLOUDY    81  76  84 CALM      29.94S
WEST PLAINS    CLEAR     78  70  76 CALM      30.01S

$$




USA.gov is the U.S. government's official web portal to all federal, state and local government web resources and services.